SPWDC EPSC-EPZG

Flight info

Callsign SPWDC
Flight time 0h 51m
Altitude 9000
Route APNEZ DCT XERBI L996 DENKO L619 VABAT DCT OBOLA
Aircraft AEST/L-SDFGRY/S

Departure

Time 2026-05-07 09:09
Airport Solidarity Szczecin–Goleniów Airport (EPSC)

Arrival

Time 2026-05-07 10:00
Airport Zielona Góra-Babimost Airport (EPZG)
Time Latitude Longitude Altitude Speed Heading
2026-05-07 08:47 53.58984 14.90078 136 ft 0 kts 41°
2026-05-07 09:01 53.58984 14.90077 135 ft 0 kts 41°
2026-05-07 09:01 53.58985 14.90079 135 ft 1 kts 45°
2026-05-07 09:01 53.58962 14.90098 136 ft 7 kts 184°
2026-05-07 09:02 53.58928 14.90101 136 ft 7 kts 131°
2026-05-07 09:02 53.58888 14.90180 137 ft 10 kts 130°
2026-05-07 09:02 53.58834 14.90283 139 ft 13 kts 131°
2026-05-07 09:02 53.58770 14.90406 141 ft 15 kts 130°
2026-05-07 09:03 53.58698 14.90545 143 ft 16 kts 131°
2026-05-07 09:03 53.58621 14.90695 145 ft 17 kts 130°
2026-05-07 09:03 53.58542 14.90850 147 ft 17 kts 131°
2026-05-07 09:03 53.58478 14.90979 149 ft 15 kts 130°
2026-05-07 09:04 53.58405 14.91119 151 ft 17 kts 132°
2026-05-07 09:04 53.58325 14.91270 153 ft 18 kts 130°
2026-05-07 09:04 53.58262 14.91392 155 ft 12 kts 131°
2026-05-07 09:04 53.58201 14.91512 156 ft 14 kts 130°
2026-05-07 09:05 53.58134 14.91644 158 ft 13 kts 134°
2026-05-07 09:05 53.58063 14.91622 158 ft 11 kts 220°
2026-05-07 09:05 53.58049 14.91602 158 ft 0 kts 220°
2026-05-07 09:07 53.58040 14.91590 158 ft 9 kts 220°
2026-05-07 09:07 53.58015 14.91531 158 ft 0 kts 298°
2026-05-07 09:07 53.57998 14.91507 158 ft 10 kts 196°
2026-05-07 09:07 53.57923 14.91412 159 ft 11 kts 226°
2026-05-07 09:08 53.57906 14.91320 160 ft 7 kts 314°
2026-05-07 09:08 53.57914 14.91306 160 ft 0 kts 313°
2026-05-07 09:08 53.58067 14.91007 156 ft 73 kts 310°
2026-05-07 09:08 53.58518 14.90163 190 ft 110 kts 312°
2026-05-07 09:09 53.59071 14.89128 416 ft 129 kts 311°
2026-05-07 09:09 53.59664 14.87971 880 ft 131 kts 313°
2026-05-07 09:09 53.60242 14.86808 1338 ft 130 kts 313°
2026-05-07 09:09 53.60875 14.85695 1712 ft 133 kts 328°
2026-05-07 09:10 53.61710 14.85081 2098 ft 130 kts 345°
2026-05-07 09:10 53.62529 14.84436 2470 ft 130 kts 334°
2026-05-07 09:10 53.63296 14.83620 2824 ft 131 kts 330°
2026-05-07 09:10 53.64039 14.82705 3139 ft 135 kts 328°
2026-05-07 09:11 53.64778 14.81701 3451 ft 137 kts 326°
2026-05-07 09:11 53.65524 14.80697 3783 ft 137 kts 327°
2026-05-07 09:11 53.66308 14.79784 4052 ft 139 kts 317°
2026-05-07 09:11 53.66658 14.78252 4293 ft 148 kts 274°
2026-05-07 09:12 53.66300 14.76603 4524 ft 157 kts 232°
2026-05-07 09:12 53.65378 14.75640 4797 ft 158 kts 193°
2026-05-07 09:12 53.64304 14.75307 5122 ft 156 kts 188°
2026-05-07 09:12 53.63249 14.74818 5386 ft 159 kts 198°
2026-05-07 09:13 53.62238 14.74033 5660 ft 161 kts 207°
2026-05-07 09:13 53.61282 14.73029 5869 ft 166 kts 214°
2026-05-07 09:13 53.60344 14.71862 6115 ft 170 kts 218°
2026-05-07 09:13 53.59418 14.70601 6375 ft 171 kts 220°
2026-05-07 09:14 53.58388 14.69609 6603 ft 173 kts 195°
2026-05-07 09:14 53.57204 14.69518 6841 ft 171 kts 165°
2026-05-07 09:14 53.56154 14.70350 7109 ft 165 kts 137°
2026-05-07 09:14 53.55372 14.71723 7363 ft 161 kts 129°
2026-05-07 09:15 53.54634 14.73130 7594 ft 160 kts 128°
2026-05-07 09:15 53.53906 14.74552 7795 ft 161 kts 128°
2026-05-07 09:15 53.53174 14.75983 7995 ft 162 kts 128°
2026-05-07 09:15 53.52441 14.77426 8189 ft 163 kts 128°
2026-05-07 09:16 53.51703 14.78876 8383 ft 163 kts 129°
2026-05-07 09:16 53.50960 14.80325 8565 ft 164 kts 129°
2026-05-07 09:16 53.50214 14.81781 8733 ft 166 kts 129°
2026-05-07 09:16 53.49445 14.83273 8802 ft 172 kts 129°
2026-05-07 09:17 53.48649 14.84813 8886 ft 176 kts 130°
2026-05-07 09:17 53.47843 14.86381 8985 ft 178 kts 130°
2026-05-07 09:17 53.47039 14.87939 9060 ft 181 kts 130°
2026-05-07 09:17 53.46197 14.89573 9037 ft 187 kts 130°
2026-05-07 09:18 53.45335 14.91237 9027 ft 190 kts 130°
2026-05-07 09:18 53.44461 14.92920 9021 ft 192 kts 130°
2026-05-07 09:18 53.43582 14.94616 9031 ft 193 kts 130°
2026-05-07 09:18 53.42696 14.96327 9035 ft 195 kts 130°
2026-05-07 09:19 53.41805 14.98050 9027 ft 196 kts 130°
2026-05-07 09:19 53.40907 14.99784 9027 ft 198 kts 130°
2026-05-07 09:19 53.40004 15.01529 9024 ft 199 kts 130°
2026-05-07 09:19 53.39093 15.03284 9023 ft 200 kts 130°
2026-05-07 09:20 53.38183 15.05039 9029 ft 200 kts 130°
2026-05-07 09:20 53.37272 15.06792 9018 ft 199 kts 130°
2026-05-07 09:20 53.36362 15.08545 9022 ft 200 kts 130°
2026-05-07 09:20 53.35449 15.10303 9017 ft 200 kts 130°
2026-05-07 09:21 53.34532 15.12067 9022 ft 201 kts 130°
2026-05-07 09:21 53.33613 15.13831 9015 ft 201 kts 130°
2026-05-07 09:21 53.32690 15.15601 9016 ft 202 kts 131°
2026-05-07 09:21 53.31765 15.17374 8990 ft 203 kts 131°
2026-05-07 09:22 53.30854 15.19122 9020 ft 202 kts 131°
2026-05-07 09:22 53.29932 15.20892 9011 ft 202 kts 131°
2026-05-07 09:22 53.29011 15.22658 9014 ft 201 kts 131°
2026-05-07 09:22 53.28087 15.24422 9018 ft 201 kts 131°
2026-05-07 09:23 53.27167 15.26180 9015 ft 202 kts 131°
2026-05-07 09:23 53.26242 15.27945 9016 ft 202 kts 131°
2026-05-07 09:23 53.25302 15.29687 9021 ft 202 kts 134°
2026-05-07 09:23 53.24322 15.31359 9014 ft 202 kts 135°
2026-05-07 09:24 53.23331 15.33020 9021 ft 202 kts 135°
2026-05-07 09:24 53.22342 15.34682 9022 ft 202 kts 135°
2026-05-07 09:24 53.21356 15.36349 9015 ft 202 kts 134°
2026-05-07 09:24 53.20372 15.38019 9017 ft 202 kts 134°
2026-05-07 09:25 53.19383 15.39701 9019 ft 203 kts 134°
2026-05-07 09:25 53.18394 15.41385 9019 ft 203 kts 134°
2026-05-07 09:25 53.17405 15.43064 9009 ft 203 kts 135°
2026-05-07 09:25 53.16410 15.44749 9002 ft 203 kts 135°
2026-05-07 09:26 53.15432 15.46406 9011 ft 203 kts 135°
2026-05-07 09:26 53.14442 15.48084 9004 ft 203 kts 135°
2026-05-07 09:26 53.13454 15.49758 9015 ft 203 kts 135°
2026-05-07 09:26 53.12465 15.51436 9018 ft 203 kts 135°
2026-05-07 09:27 53.11475 15.53113 9006 ft 203 kts 135°
2026-05-07 09:27 53.10487 15.54786 9014 ft 203 kts 135°
2026-05-07 09:27 53.08509 15.58131 9007 ft 203 kts 135°
2026-05-07 09:28 53.07519 15.59805 9013 ft 203 kts 135°
2026-05-07 09:28 53.06529 15.61478 9007 ft 203 kts 135°
2026-05-07 09:28 53.05536 15.63159 9009 ft 204 kts 135°
2026-05-07 09:28 53.04541 15.64837 9004 ft 204 kts 135°
2026-05-07 09:29 53.03525 15.66483 8993 ft 204 kts 141°
2026-05-07 09:29 53.02335 15.67751 8996 ft 203 kts 153°
2026-05-07 09:29 53.01070 15.68786 9005 ft 202 kts 156°
2026-05-07 09:29 52.99788 15.69759 8999 ft 202 kts 157°
2026-05-07 09:30 52.98504 15.70710 8999 ft 202 kts 157°
2026-05-07 09:30 52.97215 15.71656 8998 ft 202 kts 157°
2026-05-07 09:30 52.95930 15.72598 8999 ft 202 kts 157°
2026-05-07 09:30 52.94646 15.73544 8999 ft 202 kts 157°
2026-05-07 09:31 52.93381 15.74486 8999 ft 202 kts 157°
2026-05-07 09:31 52.92100 15.75442 9000 ft 202 kts 157°
2026-05-07 09:31 52.90820 15.76395 8997 ft 202 kts 157°
2026-05-07 09:31 52.89541 15.77346 9000 ft 201 kts 157°
2026-05-07 09:32 52.88263 15.78300 9000 ft 201 kts 157°
2026-05-07 09:32 52.86985 15.79258 8999 ft 202 kts 157°
2026-05-07 09:32 52.85706 15.80213 8996 ft 202 kts 158°
2026-05-07 09:32 52.84427 15.81167 8997 ft 202 kts 157°
2026-05-07 09:33 52.83145 15.82126 8990 ft 202 kts 158°
2026-05-07 09:33 52.81885 15.83150 8981 ft 202 kts 152°
2026-05-07 09:33 52.80750 15.84519 8988 ft 202 kts 141°
2026-05-07 09:33 52.79667 15.86001 8994 ft 203 kts 143°
2026-05-07 09:34 52.78557 15.87456 8991 ft 203 kts 144°
2026-05-07 09:34 52.77461 15.88881 8995 ft 203 kts 144°
2026-05-07 09:34 52.76352 15.90326 8991 ft 203 kts 144°
2026-05-07 09:34 52.75246 15.91774 8991 ft 203 kts 143°
2026-05-07 09:35 52.74141 15.93233 8981 ft 204 kts 144°
2026-05-07 09:35 52.73036 15.94695 8981 ft 204 kts 144°
2026-05-07 09:35 52.71932 15.96154 8980 ft 203 kts 144°
2026-05-07 09:35 52.70828 15.97611 8980 ft 203 kts 144°
2026-05-07 09:36 52.69722 15.99069 8981 ft 203 kts 144°
2026-05-07 09:36 52.68620 16.00530 8983 ft 204 kts 144°
2026-05-07 09:36 52.67511 16.01994 8965 ft 205 kts 144°
2026-05-07 09:36 52.66399 16.03467 8974 ft 204 kts 144°
2026-05-07 09:37 52.65289 16.04932 8980 ft 204 kts 144°
2026-05-07 09:37 52.64180 16.06389 8980 ft 204 kts 144°
2026-05-07 09:37 52.63070 16.07847 8977 ft 204 kts 144°
2026-05-07 09:37 52.61963 16.09301 8980 ft 203 kts 144°
2026-05-07 09:38 52.60858 16.10758 8980 ft 204 kts 144°
2026-05-07 09:38 52.59755 16.12218 8982 ft 204 kts 144°
2026-05-07 09:38 52.58648 16.13677 8977 ft 204 kts 144°
2026-05-07 09:38 52.57540 16.15133 8985 ft 204 kts 144°
2026-05-07 09:39 52.56429 16.16588 8980 ft 204 kts 144°
2026-05-07 09:39 52.55319 16.18040 8981 ft 204 kts 146°
2026-05-07 09:39 52.54075 16.19117 8987 ft 202 kts 167°
2026-05-07 09:39 52.52700 16.19469 8978 ft 199 kts 179°
2026-05-07 09:40 52.51320 16.19570 8979 ft 198 kts 181°
2026-05-07 09:40 52.49949 16.19629 8980 ft 197 kts 182°
2026-05-07 09:40 52.48583 16.19678 8980 ft 196 kts 182°
2026-05-07 09:40 52.47236 16.19728 8981 ft 196 kts 182°
2026-05-07 09:41 52.45874 16.19785 8980 ft 196 kts 182°
2026-05-07 09:41 52.44513 16.19846 8979 ft 196 kts 182°
2026-05-07 09:41 52.43154 16.19912 8980 ft 195 kts 182°
2026-05-07 09:41 52.41795 16.19980 8982 ft 195 kts 181°
2026-05-07 09:42 52.40439 16.20052 8983 ft 195 kts 182°
2026-05-07 09:42 52.39079 16.20119 8981 ft 196 kts 182°
2026-05-07 09:42 52.37718 16.20187 8981 ft 195 kts 182°
2026-05-07 09:42 52.36359 16.20256 8983 ft 195 kts 182°
2026-05-07 09:43 52.35006 16.20325 8983 ft 195 kts 182°
2026-05-07 09:43 52.33649 16.20393 8984 ft 195 kts 182°
2026-05-07 09:43 52.32291 16.20461 8982 ft 195 kts 182°
2026-05-07 09:43 52.30937 16.20530 8982 ft 195 kts 182°
2026-05-07 09:44 52.29587 16.20601 8983 ft 194 kts 182°
2026-05-07 09:44 52.28233 16.20673 8981 ft 194 kts 182°
2026-05-07 09:44 52.27340 16.20718 8981 ft 194 kts 182°
2026-05-07 09:44 52.25991 16.20785 8981 ft 194 kts 182°
2026-05-07 09:45 52.24643 16.20851 8982 ft 194 kts 182°
2026-05-07 09:45 52.23296 16.20919 8980 ft 194 kts 182°
2026-05-07 09:45 52.21949 16.20987 8981 ft 194 kts 182°
2026-05-07 09:45 52.20622 16.20713 8983 ft 192 kts 205°
2026-05-07 09:46 52.19559 16.19455 8985 ft 189 kts 232°
2026-05-07 09:46 52.18983 16.17561 8987 ft 188 kts 254°
2026-05-07 09:46 52.18683 16.15485 8981 ft 188 kts 257°
2026-05-07 09:46 52.18419 16.13409 8992 ft 187 kts 257°
2026-05-07 09:47 52.18164 16.11333 8991 ft 187 kts 257°
2026-05-07 09:47 52.17912 16.09271 8926 ft 184 kts 257°
2026-05-07 09:47 52.17660 16.07238 8654 ft 188 kts 257°
2026-05-07 09:47 52.17393 16.05133 8368 ft 191 kts 257°
2026-05-07 09:48 52.17119 16.03005 8084 ft 192 kts 257°
2026-05-07 09:48 52.16846 16.00896 7844 ft 190 kts 257°
2026-05-07 09:48 52.16573 15.98796 7611 ft 189 kts 257°
2026-05-07 09:48 52.16303 15.96713 7382 ft 187 kts 257°
2026-05-07 09:49 52.16031 15.94637 7153 ft 187 kts 257°
2026-05-07 09:49 52.15761 15.92572 6934 ft 186 kts 257°
2026-05-07 09:49 52.15491 15.90522 6713 ft 184 kts 257°
2026-05-07 09:49 52.15226 15.88495 6476 ft 183 kts 257°
2026-05-07 09:50 52.14961 15.86477 6240 ft 182 kts 257°
2026-05-07 09:50 52.14694 15.84457 5994 ft 182 kts 257°
2026-05-07 09:50 52.14428 15.82443 5770 ft 182 kts 257°
2026-05-07 09:50 52.14157 15.80434 5542 ft 182 kts 255°
2026-05-07 09:51 52.13535 15.78671 5324 ft 182 kts 224°
2026-05-07 09:51 52.12423 15.77723 5096 ft 184 kts 193°
2026-05-07 09:51 52.11161 15.77861 4858 ft 188 kts 162°
2026-05-07 09:51 52.10088 15.79051 4615 ft 190 kts 131°
2026-05-07 09:52 52.09523 15.80975 4388 ft 191 kts 100°
2026-05-07 09:52 52.09628 15.83091 4177 ft 189 kts 69°
2026-05-07 09:52 52.10359 15.84816 3983 ft 186 kts 41°
2026-05-07 09:52 52.11407 15.85991 3843 ft 181 kts 30°
2026-05-07 09:53 52.12408 15.87199 3709 ft 178 kts 40°
2026-05-07 09:53 52.13124 15.88825 3530 ft 179 kts 66°
2026-05-07 09:53 52.13583 15.90706 3347 ft 180 kts 68°
2026-05-07 09:53 52.14001 15.92622 3168 ft 180 kts 70°
2026-05-07 09:54 52.14387 15.94553 3016 ft 178 kts 71°
2026-05-07 09:54 52.14762 15.96468 2867 ft 177 kts 71°
2026-05-07 09:54 52.15131 15.98364 2687 ft 175 kts 70°
2026-05-07 09:54 52.15528 16.00234 2479 ft 175 kts 69°
2026-05-07 09:55 52.15940 16.02094 2275 ft 175 kts 69°
2026-05-07 09:55 52.16494 16.03840 2075 ft 174 kts 46°
2026-05-07 09:55 52.17499 16.04802 1920 ft 171 kts 13°
2026-05-07 09:55 52.18662 16.04676 1741 ft 170 kts 339°
2026-05-07 09:56 52.19562 16.03506 1677 ft 164 kts 304°
2026-05-07 09:56 52.19948 16.01804 1724 ft 158 kts 284°
2026-05-07 09:56 52.19892 16.00064 1724 ft 155 kts 249°
2026-05-07 09:56 52.19322 15.98592 1740 ft 152 kts 240°
2026-05-07 09:57 52.18813 15.97034 1737 ft 156 kts 245°
2026-05-07 09:57 52.18348 15.95453 1722 ft 155 kts 246°
2026-05-07 09:57 52.17907 15.93907 1728 ft 141 kts 247°
2026-05-07 09:57 52.17535 15.92602 1682 ft 119 kts 247°
2026-05-07 09:58 52.17185 15.91369 1550 ft 121 kts 247°
2026-05-07 09:58 52.16825 15.90111 1376 ft 122 kts 246°
2026-05-07 09:58 52.16474 15.88892 1181 ft 112 kts 246°
2026-05-07 09:58 52.16152 15.87776 1072 ft 109 kts 246°
2026-05-07 09:59 52.15823 15.86641 905 ft 111 kts 246°
2026-05-07 09:59 52.15499 15.85522 764 ft 106 kts 246°
2026-05-07 09:59 52.15188 15.84451 623 ft 104 kts 246°
2026-05-07 09:59 52.14883 15.83391 451 ft 104 kts 247°
2026-05-07 10:00 52.14570 15.82354 330 ft 100 kts 246°
2026-05-07 10:00 52.14281 15.81331 209 ft 98 kts 246°
2026-05-07 10:00 52.14015 15.80412 187 ft 72 kts 245°
2026-05-07 10:00 52.13841 15.79816 189 ft 48 kts 244°
2026-05-07 10:01 52.13720 15.79398 188 ft 35 kts 244°
2026-05-07 10:01 52.13627 15.79080 186 ft 27 kts 244°
2026-05-07 10:01 52.13549 15.78814 186 ft 27 kts 244°
2026-05-07 10:01 52.13465 15.78523 186 ft 31 kts 245°
2026-05-07 10:02 52.13399 15.78294 186 ft 14 kts 256°
2026-05-07 10:02 52.13409 15.78195 185 ft 9 kts 316°
2026-05-07 10:02 52.13459 15.78151 186 ft 8 kts 336°
2026-05-07 10:02 52.13534 15.78094 187 ft 12 kts 335°
2026-05-07 10:03 52.13579 15.78045 195 ft 7 kts 252°
2026-05-07 10:03 52.13547 15.78016 187 ft 8 kts 155°
2026-05-07 10:03 52.13540 15.78021 187 ft 0 kts 155°